When you browse on this site, cookies collect data to enhance your experience and personalize the content and advertising you see.
Visit our Privacy Policy to learn more. By continuing to use the site, you agree to this use of cookies and data.
  • In Hungary
  • List of Countries
  • For 7 days
  • Water Temperature
  • Satellite Maps
  • Weather Map
  • News
  • Weather Widgets
  • user-avatar
    Login

    Hourly Weather Cervia

    Today, 17 January, Thursday

    Time Temperature Precipitation Wind Pressure Humidity
    00:00 +9°C° 0 mm 3 mps 763 mmHg 79%
    01:00 +10°C° 0 mm 4 mps 764 mmHg 77%
    02:00 +8°C° 0 mm 4 mps 763 mmHg 76%
    03:00 +8°C° 0 mm 4 mps 763 mmHg 76%
    04:00 +8°C° 0 mm 4 mps 762 mmHg 76%
    05:00 +8°C° 0 mm 4 mps 762 mmHg 76%
    06:00 +7°C° 0 mm 5 mps 762 mmHg 76%
    07:00 +7°C° 0 mm 5 mps 761 mmHg 76%
    08:00 +8°C° 0 mm 5 mps 761 mmHg 73%
    09:00 +9°C° 0 mm 5 mps 761 mmHg 69%
    10:00 +10°C° 0 mm 5 mps 761 mmHg 66%
    11:00 +12°C° 0 mm 5 mps 761 mmHg 63%
    12:00 +13°C° 0 mm 5 mps 760 mmHg 59%
    13:00 +14°C° 0 mm 5 mps 760 mmHg 56%
    14:00 +13°C° 0 mm 5 mps 760 mmHg 58%
    15:00 +13°C° 0 mm 5 mps 759 mmHg 60%
    16:00 +11°C° 0 mm 6 mps 759 mmHg 62%
    17:00 +12°C° 0 mm 5 mps 759 mmHg 67%
    18:00 +10°C° 0 mm 5 mps 758 mmHg 71%
    19:00 +9°C° 0 mm 5 mps 758 mmHg 75%
    20:00 +9°C° 0 mm 5 mps 757 mmHg 74%
    21:00 +9°C° 0 mm 5 mps 757 mmHg 74%
    22:00 +10°C° 0 mm 4 mps 757 mmHg 73%
    23:00 +9°C° 0 mm 5 mps 757 mmHg 71%

    Tomorrow, 18 January, Friday

    Time Temperature Precipitation Wind Pressure Humidity
    00:00 +9°C° 0 mm 5 mps 756 mmHg 69%
    01:00 +9°C° 0 mm 5 mps 756 mmHg 68%
    02:00 +9°C° 0 mm 5 mps 756 mmHg 68%
    03:00 +9°C° 0 mm 6 mps 755 mmHg 68%
    04:00 +10°C° 0 mm 6 mps 755 mmHg 68%
    05:00 +9°C° 0 mm 5 mps 755 mmHg 70%
    06:00 +9°C° 0 mm 5 mps 755 mmHg 73%
    07:00 +8°C° 0 mm 4 mps 755 mmHg 76%
    08:00 +10°C° 0 mm 3 mps 756 mmHg 75%
    09:00 +10°C° 0 mm 3 mps 756 mmHg 73%
    10:00 +10°C° 0 mm 2 mps 757 mmHg 71%
    11:00 +10°C° 0.1 mm 3 mps 757 mmHg 72%
    12:00 +10°C° 0.1 mm 3 mps 757 mmHg 73%
    13:00 +10°C° 0.1 mm 4 mps 758 mmHg 74%
    14:00 +10°C° 0.5 mm 3 mps 758 mmHg 76%
    15:00 +10°C° 0.5 mm 3 mps 758 mmHg 79%
    16:00 +9°C° 0.5 mm 2 mps 758 mmHg 81%
    17:00 +9°C° 0.6 mm 3 mps 759 mmHg 84%
    18:00 +9°C° 0.6 mm 3 mps 759 mmHg 86%
    19:00 +8°C° 0.6 mm 3 mps 760 mmHg 88%
    20:00 +7°C° 0.9 mm 4 mps 760 mmHg 88%
    21:00 +7°C° 0.9 mm 5 mps 760 mmHg 87%
    22:00 +7°C° 0.9 mm 6 mps 761 mmHg 87%
    23:00 +7°C° 0.2 mm 6 mps 761 mmHg 83%

    Day after tomorrow, 19 January, Saturday

    Time Temperature Precipitation Wind Pressure Humidity
    00:00 +6°C° 0.2 mm 7 mps 761 mmHg 80%
    01:00 +6°C° 0.2 mm 7 mps 761 mmHg 76%
    02:00 +7°C° 0.1 mm 6 mps 761 mmHg 76%
    03:00 +7°C° 0.1 mm 6 mps 761 mmHg 77%
    04:00 +5°C° 0.1 mm 6 mps 761 mmHg 77%
    05:00 +6°C° 0.1 mm 5 mps 761 mmHg 76%
    06:00 +6°C° 0.1 mm 5 mps 761 mmHg 75%
    07:00 +6°C° 0.1 mm 4 mps 761 mmHg 74%
    08:00 +6°C° 0 mm 4 mps 761 mmHg 72%
    09:00 +6°C° 0 mm 4 mps 761 mmHg 70%
    10:00 +7°C° 0 mm 3 mps 761 mmHg 69%
    11:00 +7°C° 0 mm 3 mps 761 mmHg 68%
    12:00 +7°C° 0 mm 3 mps 761 mmHg 67%
    13:00 +7°C° 0 mm 3 mps 761 mmHg 66%
    14:00 +7°C° 0 mm 2 mps 760 mmHg 66%
    15:00 +7°C° 0 mm 2 mps 760 mmHg 66%
    16:00 +7°C° 0 mm 2 mps 760 mmHg 66%
    17:00 +7°C° 0 mm 2 mps 760 mmHg 69%
    18:00 +6°C° 0 mm 2 mps 760 mmHg 71%
    19:00 +5°C° 0 mm 2 mps 760 mmHg 74%
    20:00 +5°C° 0 mm 2 mps 761 mmHg 75%
    21:00 +5°C° 0 mm 2 mps 761 mmHg 76%
    22:00 +4°C° 0 mm 2 mps 761 mmHg 76%
    23:00 +4°C° 0 mm 2 mps 761 mmHg 77%

    20 January, Sunday

    Time Temperature Precipitation Wind Pressure Humidity
    00:00 +4°C° 0 mm 2 mps 761 mmHg 78%
    01:00 +2°C° 0 mm 3 mps 761 mmHg 79%
    02:00 +2°C° 0 mm 3 mps 761 mmHg 79%
    03:00 +2°C° 0 mm 3 mps 760 mmHg 79%
    04:00 +2°C° 0 mm 3 mps 760 mmHg 80%
    05:00 +2°C° 0 mm 3 mps 760 mmHg 80%
    06:00 +2°C° 0 mm 3 mps 760 mmHg 80%
    07:00 +1°C° 0 mm 3 mps 761 mmHg 80%
    08:00 +2°C° 0 mm 3 mps 761 mmHg 77%
    09:00 +3°C° 0 mm 3 mps 761 mmHg 74%
    10:00 +4°C° 0 mm 3 mps 761 mmHg 71%
    11:00 +6°C° 0 mm 2 mps 761 mmHg 69%
    12:00 +7°C° 0 mm 2 mps 761 mmHg 67%
    13:00 +7°C° 0 mm 2 mps 761 mmHg 66%
    14:00 +7°C° 0 mm 2 mps 761 mmHg 67%
    15:00 +7°C° 0 mm 2 mps 761 mmHg 69%
    16:00 +7°C° 0 mm 2 mps 761 mmHg 70%
    17:00 +8°C° 0 mm 1 mps 761 mmHg 74%
    18:00 +7°C° 0 mm 1 mps 761 mmHg 78%
    19:00 +5°C° 0 mm 0 mps 761 mmHg 81%
    20:00 +6°C° 0 mm 1 mps 762 mmHg 82%
    21:00 +6°C° 0 mm 1 mps 762 mmHg 83%
    22:00 +6°C° 0 mm 1 mps 762 mmHg 84%
    23:00 +5°C° 0 mm 1 mps 762 mmHg 85%

    21 January, Monday

    Time Temperature Precipitation Wind Pressure Humidity
    00:00 +4°C° 0 mm 2 mps 762 mmHg 86%
    01:00 +4°C° 0 mm 2 mps 762 mmHg 87%
    02:00 +4°C° 0 mm 2 mps 762 mmHg 86%
    03:00 +5°C° 0 mm 2 mps 762 mmHg 85%
    04:00 +5°C° 0 mm 2 mps 762 mmHg 84%
    05:00 +4°C° 0.1 mm 3 mps 762 mmHg 84%
    06:00 +4°C° 0.1 mm 3 mps 762 mmHg 84%
    07:00 +4°C° 0.1 mm 3 mps 762 mmHg 84%
    08:00 +4°C° 0 mm 3 mps 762 mmHg 82%
    09:00 +4°C° 0 mm 4 mps 762 mmHg 80%
    10:00 +4°C° 0 mm 4 mps 763 mmHg 78%
    11:00 +4°C° 0 mm 4 mps 762 mmHg 76%
    12:00 +4°C° 0 mm 4 mps 762 mmHg 74%
    13:00 +5°C° 0 mm 4 mps 762 mmHg 72%
    14:00 +5°C° 0 mm 4 mps 762 mmHg 71%
    15:00 +5°C° 0 mm 3 mps 761 mmHg 69%
    16:00 +5°C° 0 mm 3 mps 761 mmHg 67%
    17:00 +4°C° 0 mm 3 mps 761 mmHg 70%
    18:00 +4°C° 0 mm 3 mps 760 mmHg 72%
    19:00 +3°C° 0 mm 3 mps 760 mmHg 74%
    20:00 +2°C° 0 mm 3 mps 760 mmHg 75%
    21:00 +1°C° 0 mm 4 mps 760 mmHg 76%
    22:00 +1°C° 0 mm 4 mps 760 mmHg 77%
    23:00 0°C° 0 mm 4 mps 760 mmHg 77%

    22 January, Tuesday

    Time Temperature Precipitation Wind Pressure Humidity
    00:00 0°C° 0 mm 5 mps 759 mmHg 77%
    01:00 0°C° 0 mm 5 mps 759 mmHg 77%
    02:00 -1°C° 0 mm 5 mps 758 mmHg 78%
    03:00 -1°C° 0 mm 5 mps 758 mmHg 78%
    04:00 -1°C° 0 mm 5 mps 757 mmHg 78%
    05:00 -1°C° 0 mm 5 mps 757 mmHg 78%
    06:00 -1°C° 0 mm 5 mps 757 mmHg 78%
    07:00 -1°C° 0 mm 5 mps 757 mmHg 79%
    08:00 0°C° 0 mm 5 mps 757 mmHg 75%
    09:00 0°C° 0 mm 4 mps 757 mmHg 72%
    10:00 +1°C° 0 mm 4 mps 757 mmHg 68%
    11:00 +3°C° 0 mm 4 mps 756 mmHg 65%
    12:00 +4°C° 0 mm 4 mps 756 mmHg 62%
    13:00 +5°C° 0 mm 3 mps 755 mmHg 59%
    14:00 +5°C° 0 mm 3 mps 755 mmHg 59%
    15:00 +6°C° 0 mm 2 mps 755 mmHg 59%
    16:00 +6°C° 0 mm 2 mps 754 mmHg 59%
    17:00 +5°C° 0 mm 2 mps 754 mmHg 63%
    18:00 +5°C° 0 mm 1 mps 754 mmHg 66%
    19:00 +4°C° 0 mm 1 mps 754 mmHg 69%
    20:00 +4°C° 0 mm 1 mps 754 mmHg 71%
    21:00 +4°C° 0 mm 1 mps 754 mmHg 73%
    22:00 +3°C° 0 mm 2 mps 754 mmHg 74%
    23:00 +3°C° 0 mm 1 mps 754 mmHg 75%
    Show more